Temp
9 9 9 10 10 11 12 12 11 9 9 9 9 9 9 9 9 11 15 17 17 16 18 19 20 21 23 26 27 28 28 29 30 31 32 33 32 34 33 33 33 33 33 32 31
9 9 9 9 9 9 9 10 9 9 9 9 9 9 9 9 11 15 18 16 15 17 18 22 23 23 25 26 27 27 27 29 31 32 31 33 33 33 33 32 32 31 33 30 30
9 9 9 9 9 9 9 9 9 9 9 9 8 9 9 9 16 23 19 16 13 14 19 22 24 24 25 26 27 27 27 30 30 31 31 31 32 34 33 32 31 30 31 31 30
9 9 9 8 9 9 9 9 9 9 9 8 8 8 9 12 22 22 18 18 14 16 19 21 24 24 25 25 27 26 28 28 29 30 29 30 31 32 32 33 31 30 30 31 32
8 8 8 8 8 8 8 9 8 8 8 8 9 9 10 16 19 20 18 15 14 16 21 24 24 25 25 26 27 26 27 28 28 29 29 30 30 31 32 32 31 30 29 29 30
9 9 9 8 8 8 8 8 8 8 8 8 9 9 12 15 20 18 18 16 18 18 21 24 24 26 25 26 26 27 27 28 28 29 29 29 29 30 31 32 31 30 30 30 30
9 9 8 8 8 8 8 8 8 8 8 8 8 9 12 17 18 18 18 18 19 19 22 23 24 24 25 25 26 26 25 26 27 28 28 30 28 29 30 31 31 30 30 28 28
9 8 8 8 8 8 8 8 8 8 9 9 9 9 13 17 16 17 18 18 18 18 20 22 22 24 24 26 25 25 26 25 27 27 28 27 26 29 31 30 30 29 28 27 28
8 8 7 7 8 8 8 8 8 8 9 9 9 11 17 16 16 18 19 20 18 18 20 21 23 23 24 24 25 25 25 25 26 28 28 27 26 29 31 30 29 30 29 28 29
8 8 7 7 7 8 8 8 9 9 9 10 11 11 16 21 21 20 20 19 21 21 22 22 23 23 23 24 24 25 25 26 26 28 27 27 27 29 29 29 29 29 30 28 28
7 7 7 7 7 8 7 9 12 11 10 16 18 19 22 22 20 21 20 20 22 23 23 23 23 23 24 24 26 26 26 26 27 28 27 27 27 28 29 28 29 29 29 29 30
7 7 7 7 7 7 7 11 17 16 17 17 17 18 20 20 22 22 20 22 22 22 24 22 22 25 25 25 25 24 25 25 27 28 28 27 27 29 29 29 29 28 28 27 28
7 7 7 7 8 8 9 12 14 14 18 20 21 18 20 20 22 22 22 24 22 23 23 23 24 25 24 24 24 24 24 26 26 27 28 27 27 28 29 29 29 29 29 28 28
6 6 7 7 11 11 13 14 14 14 18 22 19 20 20 21 21 24 22 24 24 23 23 24 26 25 24 24 25 24 26 25 26 26 26 28 27 28 29 29 29 29 29 29 28
7 7 7 7 8 10 14 13 14 15 18 24 22 22 23 22 25 24 23 24 24 24 24 23 24 24 24 25 26 25 27 26 26 26 26 26 27 29 29 28 29 29 29 29 29
7 7 7 7 9 9 11 12 14 17 17 23 23 21 21 22 25 25 23 25 26 25 24 25 26 26 26 26 26 27 26 26 26 26 25 26 27 28 29 29 29 28 26 25 25
7 7 7 7 11 13 12 13 16 17 23 23 23 23 22 23 24 23 23 23 23 22 22 24 24 26 26 25 26 26 25 24 24 24 25 28 27 27 27 27 28 26 25 24 23
7 8 10 10 10 10 13 16 16 21 22 24 23 21 21 23 24 24 23 23 24 24 24 23 22 25 26 25 25 25 26 25 23 25 26 26 25 28 26 26 26 25 24 24 22
7 11 12 11 10 10 14 15 18 20 23 23 22 21 18 17 16 24 24 24 24 24 22 23 23 26 25 26 27 26 25 27 25 26 25 27 26 25 25 25 25 24 23 22 22
8 10 13 12 10 11 15 17 20 22 22 22 20 21 18 16 15 19 23 24 24 25 25 24 23 24 25 25 26 25 27 24 25 23 23 25 26 27 25 25 24 24 22 22 22
10 13 12 10 9 14 16 19 20 21 22 21 20 18 15 15 16 19 23 24 25 25 25 25 24 21 23 23 24 24 25 25 25 25 23 24 24 27 26 25 24 23 23 22 22
8 13 12 10 11 13 16 17 13 18 20 20 21 18 15 12 12 17 20 24 25 25 23 25 23 20 22 22 22 22 24 25 23 23 24 25 24 24 25 24 24 23 22 22 22
7 12 14 11 13 16 17 17 16 15 16 18 18 19 16 14 13 14 20 19 21 24 23 22 21 18 19 21 22 22 22 22 22 23 22 23 22 23 23 23 23 22 22 21 21
8 12 16 12 14 14 14 16 16 17 14 17 16 17 15 13 13 12 17 18 19 22 21 22 19 19 20 19 22 21 22 23 22 20 21 22 17 20 21 22 22 22 22 22 21
9 12 13 13 14 15 14 15 16 16 17 17 17 15 15 13 12 10 15 16 18 17 21 21 20 20 19 20 21 22 21 22 22 23 22 23 22 22 22 22 22 22 21 21 20
8 9 11 12 14 14 14 15 14 14 11 16 14 15 16 15 12 11 13 16 18 19 19 19 19 20 17 19 20 21 21 21 21 21 21 21 21 23 22 22 21 21 20 20 19
9 9 8 10 11 14 15 14 14 13 10 12 13 12 13 12 14 14 11 15 19 20 19 20 19 19 19 19 19 20 21 21 21 21 21 21 21 21 20 20 20 19 19 18 17
Height
822 819 816 814 812 809 806 804 802 800 798 796 794 793 791 788 786 785 778 770 769 768 769 771 772 772 773 766 766 765 766 759 754 751 749 737 748 734 738 739 739 738 741 741 743
820 818 815 812 810 807 805 802 800 798 796 794 792 790 787 785 782 773 762 762 763 765 767 765 765 768 766 763 762 762 762 754 741 738 744 738 741 736 741 741 744 743 743 743 746
818 815 812 810 807 804 801 799 797 795 793 792 790 787 785 783 775 751 754 756 758 762 765 764 763 765 764 760 759 757 757 746 744 739 743 745 739 729 738 741 744 750 749 748 746
817 814 811 808 805 802 799 796 794 792 790 788 787 786 783 783 762 750 752 754 756 762 763 762 761 762 760 760 752 761 749 750 745 743 752 748 740 734 734 735 738 743 749 749 748
814 811 809 805 803 800 797 794 791 789 786 785 783 783 783 775 755 751 751 752 757 762 757 753 755 754 756 749 750 754 748 747 747 748 746 741 741 738 734 731 735 741 746 750 751
813 810 806 803 799 796 792 790 787 785 783 782 781 781 780 769 746 747 749 751 754 758 754 750 749 749 750 747 750 746 749 744 744 743 744 745 743 739 731 729 732 737 736 745 750
810 806 803 799 795 792 789 786 782 779 777 776 776 778 774 748 745 747 746 750 750 753 752 750 748 751 747 750 746 747 753 747 745 744 742 737 743 735 734 729 731 735 738 746 750
806 803 799 796 792 788 784 781 778 774 770 769 771 775 760 741 742 743 745 746 749 751 750 750 749 747 750 742 747 753 749 752 738 741 739 745 743 731 726 730 731 736 739 747 746
804 799 794 790 787 783 780 776 772 769 766 766 771 769 745 737 736 735 738 741 745 749 748 750 747 748 749 753 749 746 746 746 740 727 735 738 746 727 718 722 730 729 734 743 740
801 796 792 788 784 781 777 772 767 767 769 769 768 771 738 723 723 726 734 737 738 741 746 748 743 747 749 746 751 742 744 733 736 727 730 730 732 726 720 725 725 728 725 733 733
797 793 788 784 780 776 772 771 769 765 763 744 737 728 719 719 722 726 731 735 733 734 733 737 742 742 735 737 732 727 732 731 724 718 723 725 725 719 715 724 723 722 723 723 724
796 790 784 780 775 771 768 764 750 751 736 731 730 729 725 723 717 720 728 727 729 731 725 739 737 727 729 731 736 737 736 729 716 709 714 720 721 710 708 708 711 718 720 720 721
789 785 781 775 768 765 764 759 753 751 735 712 706 714 714 722 714 716 719 715 722 724 723 725 719 721 727 731 736 733 738 726 722 713 709 716 718 711 701 701 704 706 708 708 712
786 782 778 771 765 764 758 752 751 752 729 698 704 697 700 706 709 702 711 709 713 718 720 721 708 718 724 726 724 730 719 724 720 725 725 707 716 702 698 701 701 701 703 701 704
779 775 772 771 766 761 753 752 751 749 729 679 686 683 680 686 677 691 700 703 706 706 714 715 711 715 719 716 712 719 710 718 720 720 716 713 712 684 689 701 698 697 699 701 702
772 769 768 762 758 749 751 752 751 740 720 679 672 681 685 682 672 676 693 696 692 699 704 700 696 702 703 702 705 704 713 716 716 717 728 709 707 695 690 690 691 700 710 714 717
765 759 757 754 746 743 745 750 736 720 677 675 670 671 676 676 672 680 688 695 696 706 708 705 702 696 693 705 701 707 714 726 734 728 724 695 708 695 691 693 696 707 713 719 724
759 749 744 743 741 744 742 734 722 687 683 663 670 679 682 667 668 671 681 687 684 688 693 706 716 697 692 697 700 705 704 707 726 715 706 700 713 693 697 703 704 709 717 722 728
752 743 737 736 735 738 734 719 694 685 673 669 669 678 688 693 705 665 666 672 674 677 698 694 700 684 690 690 689 694 707 688 705 698 702 693 700 703 702 707 711 717 721 727 729
755 742 731 732 733 735 724 700 681 675 670 672 681 673 688 697 705 683 663 660 667 668 670 682 698 687 689 689 687 694 683 709 701 721 720 703 701 697 707 712 715 719 725 728 731
749 735 728 729 732 725 702 684 676 671 666 672 677 684 697 701 698 680 661 652 655 663 665 674 684 703 695 697 695 699 697 693 694 697 714 715 709 683 696 707 715 719 723 726 731
752 729 726 729 725 710 696 687 694 678 670 669 664 676 693 707 707 689 670 654 649 657 672 670 685 706 700 696 699 698 695 687 707 711 703 701 710 700 701 710 716 721 725 729 732
755 732 720 723 709 693 689 683 687 691 685 673 672 668 684 697 706 698 665 673 664 660 667 678 690 715 713 708 700 701 701 701 702 701 710 713 716 709 711 715 718 725 730 733 737
756 726 708 715 708 706 697 687 684 681 688 675 676 675 683 692 694 697 676 677 674 666 667 672 697 699 702 706 691 704 703 701 705 723 718 717 745 727 724 723 725 728 730 733 738
751 725 720 710 702 701 699 691 685 681 674 673 671 678 676 690 696 707 678 681 679 683 669 676 692 694 707 704 695 695 701 704 706 704 714 706 715 716 718 721 725 729 733 737 741
750 740 731 719 705 702 695 689 691 689 701 675 683 676 672 680 695 698 689 684 675 678 681 683 692 694 712 710 703 702 702 705 708 709 713 715 718 709 717 721 729 732 736 737 742
750 745 743 726 719 699 692 694 694 693 701 691 689 691 684 691 686 686 698 686 670 672 678 682 690 696 700 707 707 709 699 702 707 711 714 718 714 716 727 729 733 736 740 744 751
Wind_Speed
19 17 16 15 15 14 14 14 14 14 13 13 14 13 15 15 16 17 21 14 12 21 8 4 9 14 11 13 12 13 17 21 27 24 18 12 15 15 4 2 5 5 10 9 8
20 19 18 17 17 18 18 17 16 14 14 14 15 13 14 15 18 25 22 21 20 11 13 13 11 15 12 14 11 15 17 26 20 19 14 17 18 21 12 7 7 5 13 8 8
20 19 19 19 19 19 20 19 19 17 15 15 15 14 11 12 12 4 4 15 19 18 14 12 10 15 16 13 19 18 22 19 23 15 14 16 18 20 18 15 6 7 8 11 6
20 20 19 20 21 21 21 21 20 18 17 15 15 13 8 6 6 6 3 2 14 15 15 14 13 17 15 17 19 19 20 20 19 14 18 23 18 22 21 16 13 7 7 9 7
22 22 22 23 23 23 23 23 22 20 18 17 14 9 5 9 11 5 8 7 14 16 20 15 14 17 17 16 16 21 19 19 20 18 21 20 22 21 20 21 13 8 4 5 6
22 23 23 24 23 22 22 22 22 21 21 18 14 7 9 12 3 6 7 16 13 19 17 16 9 16 10 16 18 14 20 19 17 22 24 21 21 21 21 17 15 15 13 13 12
27 24 24 24 23 23 24 23 22 22 26 22 16 11 13 21 3 9 10 12 12 18 13 19 7 12 9 12 16 18 15 18 21 21 19 26 24 26 21 16 24 21 17 15 17
26 26 26 25 25 24 23 22 25 26 19 17 13 12 10 7 15 21 10 8 11 13 14 14 9 10 8 10 7 19 21 20 19 21 24 17 29 28 21 21 18 20 13 15 25
28 27 26 24 23 23 23 24 25 12 5 9 9 9 9 4 12 18 21 12 15 13 11 15 10 8 12 12 12 16 17 21 19 22 22 24 26 25 24 24 23 20 22 19 27
29 29 27 25 25 25 25 25 9 1 5 8 0 6 10 8 10 15 19 19 11 16 16 15 9 10 13 14 15 18 21 16 18 19 20 28 25 24 10 15 23 24 27 26 32
30 30 28 27 27 25 27 9 3 5 9 11 9 6 3 5 14 15 24 22 12 19 13 18 13 18 19 21 16 9 11 15 16 16 22 25 28 25 21 21 20 21 26 27 30
30 31 30 29 30 30 11 5 8 6 11 24 25 22 21 4 8 16 25 14 18 17 16 14 20 17 15 18 17 15 16 14 11 13 18 22 24 24 25 23 22 18 21 27 28
28 27 29 30 32 9 7 12 8 10 8 15 20 17 15 21 12 21 26 14 19 19 23 17 12 18 17 18 19 17 18 14 11 4 12 17 23 20 21 18 19 19 17 20 28
27 27 27 29 12 9 18 8 7 7 7 12 9 9 15 14 17 22 31 19 13 20 20 21 15 17 20 21 21 18 16 17 15 10 13 19 13 19 17 19 18 18 18 13 21
27 26 24 20 21 9 5 2 6 6 8 6 9 7 12 22 13 27 34 22 19 15 18 18 18 17 23 19 19 16 13 14 15 16 17 15 11 12 17 13 19 15 12 17 11
34 31 29 21 15 21 13 10 8 8 12 7 9 13 15 23 19 24 24 26 19 17 19 17 11 17 16 15 16 16 18 13 16 15 15 18 13 10 14 15 15 12 8 6 8
38 38 38 20 7 3 10 6 7 11 5 14 7 12 17 18 24 23 26 28 22 21 17 18 16 14 11 12 10 13 13 9 10 13 14 18 12 6 11 9 7 12 13 11 10
41 38 14 12 9 17 7 9 15 12 24 5 3 4 13 19 24 24 26 24 25 21 13 16 17 21 14 16 12 18 16 11 14 13 15 8 8 5 8 10 11 14 14 13 14
36 22 13 5 8 15 9 13 19 20 22 16 11 12 8 9 6 23 23 25 25 23 21 17 18 18 19 15 18 13 11 13 9 5 7 12 7 6 9 11 12 13 14 14 14
25 19 10 6 10 15 10 22 21 25 17 12 17 8 9 12 8 14 22 23 25 25 21 10 13 12 16 14 13 13 14 9 9 11 13 7 14 7 15 12 11 13 13 14 14
15 6 7 6 14 7 11 17 19 25 16 16 19 9 2 6 14 20 15 10 23 25 21 11 6 7 11 14 17 11 12 11 5 8 10 10 8 9 12 11 10 11 12 12 12
7 5 8 4 4 4 10 17 11 17 16 18 17 13 10 7 5 12 19 11 14 19 21 16 10 11 13 4 3 3 7 14 8 12 8 10 3 0 9 10 12 12 11 10 10
5 7 4 7 5 7 12 13 7 7 17 12 10 11 10 10 4 20 10 2 8 19 18 11 5 9 8 11 8 9 5 2 4 6 12 12 3 6 10 11 11 11 10 9 8
4 5 5 4 3 7 12 12 10 3 12 13 5 3 9 4 6 6 9 4 4 5 4 14 6 7 6 5 13 15 13 11 9 7 10 11 12 12 10 9 8 8 7 7 5
4 5 4 6 7 13 12 13 14 11 9 4 5 8 6 4 5 4 3 4 6 3 10 8 12 15 8 3 4 7 10 10 10 7 7 3 6 14 13 11 8 5 4 4 3
4 5 6 13 11 10 9 8 11 12 5 2 7 3 9 6 7 3 2 4 8 8 9 1 8 13 10 6 4 5 6 7 6 5 6 4 5 2 5 2 7 5 3 3 1
10 9 5 9 10 11 4 8 11 10 4 6 5 5 4 6 3 9 4 7 1 13 10 6 9 12 9 5 4 7 11 12 9 6 7 9 2 9 5 5 4 3 2 2 1
Wind_Direction
342 341 337 333 331 329 327 326 326 327 325 324 324 314 311 307 297 279 258 241 217 223 186 178 173 188 212 226 227 225 237 234 233 228 242 236 214 201 165 58 83 88 24 335 148
335 333 331 327 325 323 320 320 321 321 321 322 323 317 311 309 296 271 254 236 232 211 191 193 184 184 203 216 210 219 229 235 242 244 239 238 225 209 207 160 149 127 21 59 158
331 326 323 321 320 316 314 313 313 316 315 314 318 319 310 319 284 233 135 224 212 196 200 202 202 193 214 220 214 220 244 240 247 251 261 255 236 239 228 197 134 79 24 50 351
333 328 327 323 320 317 314 311 309 308 305 309 313 316 300 289 279 138 127 58 178 175 185 177 188 195 213 210 220 225 235 243 254 226 236 244 253 238 223 213 154 120 29 355 25
333 330 328 326 323 321 317 312 309 306 302 301 307 300 282 237 245 234 265 179 173 191 192 183 191 204 218 220 223 223 240 221 238 237 242 248 244 248 237 231 162 202 216 293 324
334 331 327 324 323 320 315 313 310 305 301 293 293 258 242 250 227 205 205 170 183 198 209 193 206 210 255 235 230 216 239 238 228 231 233 235 240 236 240 258 217 233 232 266 299
337 333 325 324 323 322 320 315 310 302 302 287 261 223 243 243 207 178 152 183 195 201 215 200 177 187 226 238 241 243 242 230 235 245 251 237 240 229 235 236 245 234 234 271 285
336 332 328 325 323 321 319 314 311 308 297 281 220 202 253 249 233 226 221 198 203 206 224 199 183 213 240 237 246 231 226 238 226 224 233 251 243 231 221 244 242 236 228 246 269
335 332 325 320 321 320 319 316 315 305 325 146 164 200 256 176 221 218 194 183 164 177 174 179 177 194 212 230 229 214 232 223 242 224 224 216 245 249 228 227 233 236 227 244 252
333 329 324 322 323 321 320 319 302 160 134 162 17 222 237 224 185 181 180 161 151 168 160 185 184 191 216 215 221 217 228 233 234 229 223 226 232 240 231 232 241 232 227 213 241
331 328 324 323 320 321 320 312 213 196 211 213 198 256 298 131 139 168 167 171 170 176 177 186 198 203 201 214 231 282 247 231 240 240 235 231 237 223 221 219 239 230 235 229 226
332 328 325 325 322 317 295 233 297 344 285 224 247 235 260 317 192 163 168 177 174 188 176 181 216 207 216 206 225 246 258 243 263 238 233 230 240 236 229 225 229 236 240 236 231
325 324 326 326 321 311 246 252 279 316 266 277 228 232 222 219 232 175 185 186 188 196 195 199 202 212 208 209 221 222 251 246 265 309 204 228 234 233 227 220 220 227 244 236 224
329 327 328 328 311 329 291 267 278 234 273 260 194 232 196 204 215 191 198 189 191 205 199 221 210 198 209 216 213 230 220 252 262 255 224 209 235 208 210 213 218 220 231 219 201
333 327 324 323 293 278 309 251 341 205 273 95 169 151 182 192 180 192 191 206 203 197 188 206 210 204 206 212 218 241 228 237 255 253 262 217 259 213 181 207 209 218 228 230 228
329 325 319 309 260 255 266 288 284 233 242 239 168 184 178 209 194 166 184 207 224 209 204 229 207 207 214 215 227 240 231 245 249 250 240 248 236 179 170 205 165 135 127 141 165
323 318 309 266 246 286 211 200 222 240 210 247 216 192 207 193 200 168 183 198 208 207 203 215 199 212 218 209 208 201 201 204 210 223 238 221 219 248 75 87 116 121 111 116 116
324 322 304 262 245 231 195 203 236 246 230 265 216 222 258 209 206 191 185 194 209 207 208 202 211 207 190 227 191 203 216 236 207 209 214 164 227 226 98 106 109 102 104 106 102
326 317 291 245 211 191 214 220 232 243 267 263 248 242 205 270 290 207 199 201 200 209 211 204 218 194 219 214 240 189 223 258 272 269 273 169 150 132 120 124 123 115 108 100 93
322 310 283 277 188 177 218 241 246 247 274 259 254 265 219 196 219 240 204 201 203 200 208 211 207 183 194 231 227 265 212 198 230 237 235 181 176 214 165 150 139 126 114 107 103
315 301 37 131 164 202 237 238 253 246 257 272 268 262 308 208 216 256 206 188 197 193 205 194 199 194 164 202 210 198 221 239 275 260 225 228 232 101 153 145 138 120 112 106 100
312 291 147 156 245 224 255 279 1 302 298 284 261 258 209 136 308 269 222 185 205 187 196 205 224 184 215 82 299 323 267 227 219 221 248 271 126 71 124 135 139 123 111 100 95
295 278 228 214 263 288 300 295 253 265 265 268 265 236 176 181 138 245 189 74 195 192 174 169 181 180 179 195 202 224 213 274 311 307 219 224 180 130 131 139 131 127 122 116 107
282 299 210 218 301 326 329 313 315 281 281 299 298 203 162 152 166 273 202 100 102 201 151 148 170 217 229 297 183 197 199 200 212 222 248 252 141 171 173 146 137 135 138 135 121
256 253 316 301 322 319 311 290 302 326 277 322 223 196 188 130 147 220 179 102 134 192 124 164 193 193 156 205 173 177 179 185 210 225 228 161 213 170 177 176 169 168 171 166 150
286 319 337 299 295 290 295 306 319 350 335 242 330 268 195 169 152 111 342 198 168 169 129 146 142 158 158 210 229 214 202 203 212 195 239 202 222 216 100 197 168 180 202 233 25
318 305 312 296 315 294 314 320 314 355 289 33 2 34 94 63 131 131 161 278 192 154 136 137 148 176 162 176 193 236 227 218 221 212 243 238 24 116 154 180 158 160 180 81 54